Stations météo

réclame
Mon MeteoGroup
Mühldorf, Allemagne (10875): Température de l'air & dewpoint: 14.10.2018 19:00:00 - 20.10.2018 19:00:00 (CEST)Mühldorf, Allemagne (10875): Température de l'air 5cm & Température de l'air -5cm: 14.10.2018 19:00:00 - 20.10.2018 19:00:00 (CEST)Mühldorf, Allemagne (10875): Température de l'air -20cm & Température de l'air -100cm: 14.10.2018 19:00:00 - 20.10.2018 19:00:00 (CEST)Mühldorf, Allemagne (10875): Vitesse du vent & gusts: 14.10.2018 19:00:00 - 20.10.2018 19:00:00 (CEST)Mühldorf, Allemagne (10875): Direction du vent: 14.10.2018 19:00:00 - 20.10.2018 19:00:00 (CEST)Mühldorf, Allemagne (10875): reduced air pressure: 14.10.2018 19:00:00 - 20.10.2018 19:00:00 (CEST)Mühldorf, Allemagne (10875): visibility: 14.10.2018 19:00:00 - 20.10.2018 19:00:00 (CEST)Mühldorf, Allemagne (10875): Ensoleillement: 14.10.2018 19:00:00 - 20.10.2018 19:00:00 (CEST)Mühldorf, Allemagne (10875): Quantités de précipitations: 14.10.2018 19:00:00 - 20.10.2018 19:00:00 (CEST)
Date & Time tt [°C] td [°C] tt 5cm [°C] tt -5cm [°C] tt -20cm [°C] tt -100cm [°C] ff [km/h] ff [knt] fx [km/h] fx [knt] dd ppp [hPa] vv [km] sd [min] rr [mm]
20.10.2018 19:00:00 7,8 5,7 3,1 11,8 12,4 14,3 3 2 5 3 NW 1028,8 8 0 0,0
20.10.2018 18:00:00 12,0 6,8 9,7 13,5 12,3 14,3 4 2 8 5 WNW 1027,9 10 25 0,0
20.10.2018 17:00:00 13,8 7,5 13,5 14,3 12,1 14,3 6 3 18 10 W 1027,7 9 26 0,0
20.10.2018 16:00:00 14,1 5,2 14,0 15,1 12,0 14,3 15 8 23 12 NNW 1027,7 16 23 0,0
20.10.2018 15:00:00 14,2 7,4 15,8 15,0 11,8 14,3 10 5 23 12 NW 1027,9 9 2 0,0
20.10.2018 14:00:00 14,2 7,2 16,0 15,1 11,7 14,3 17 9 27 15 NW 1028,0 6 14 0,0
20.10.2018 13:00:00 13,9 9,4 20,0 13,6 11,7 14,3 10 5 14 8 NW 1028,0 3,6 33 0,0
20.10.2018 12:00:00 10,4 9,3 11,8 11,0 11,7 14,3 7 4 11 6 W 1028,9 2,4 0 0,0
20.10.2018 11:00:00 8,2 7,9 9,3 9,5 11,8 14,3 5 3 10 5 WNW 1029,3 1,7 0 0,0
20.10.2018 10:00:00 6,9 6,9 8,0 8,7 11,9 14,3 5 3 8 5 W 1029,2 0,6 0 0,0
20.10.2018 09:00:00 5,8 5,8 6,5 8,1 12,0 14,3 4 2 6 4 W 1028,9 0,1 0 0,0
20.10.2018 08:00:00 4,9 4,9 5,4 7,7 12,1 14,3 5 3 6 4 NW 1028,5 0,1 0 0,0
20.10.2018 07:00:00 4,1 4,1 4,3 7,3 12,2 14,3 0 0 3 2 N 1027,7 1,7 0 0,0
20.10.2018 06:00:00 3,5 3,4 3,5 7,1 12,3 14,3 0 0 3 2 N 1027,4 0,4 0 0,0
20.10.2018 05:00:00 3,1 2,9 0,6 7,2 12,5 14,3 0 0 4 2 N 1027,0 0,1 0 0,0
20.10.2018 04:00:00 3,8 3,7 1,5 7,8 12,6 14,3 2 1 3 2 W 1026,6 1,1 0 0,0
20.10.2018 03:00:00 4,0 4,0 4,0 7,8 12,8 14,3 2 1 4 2 W 1026,7 0,3 0 0,0
20.10.2018 02:00:00 4,0 4,0 1,9 8,1 12,9 14,3 2 1 5 3 W 1026,6 0,1 0 0,0
20.10.2018 01:00:00 4,6 4,6 1,9 8,5 13,0 14,3 0 0 4 2 N 1026,2 0,1 0 0,0
20.10.2018 00:00:00 5,6 5,5 2,1 9,0 13,2 14,3 0 0 7 4 N 1025,7 0,9 0 0,0
19.10.2018 23:00:00 5,2 4,7 3,0 9,7 13,2 14,3 5 3 6 3 W 1025,4 2,0 0 0,0
19.10.2018 22:00:00 6,1 5,5 4,2 10,4 13,3 14,4 6 4 9 5 W 1024,7 1,7 0 0,0
19.10.2018 21:00:00 7,2 6,3 3,7 11,2 13,3 14,4 2 1 5 3 SW 1024,0 2,4 0 0,0
19.10.2018 20:00:00 8,7 7,0 5,3 12,4 13,2 14,4 3 2 5 3 WNW 1023,5 3,2 0 0,0
19.10.2018 19:00:00 10,7 8,7 6,2 13,8 13,1 14,4 0 0 6 3 N 1022,5 4,1 0 0,0
19.10.2018 18:00:00 14,4 10,1 11,0 15,6 12,9 14,4 5 3 15 8 NE 1021,3 6 27 0,0
19.10.2018 17:00:00 16,6 10,4 17,3 16,9 12,7 14,4 10 5 18 10 ENE 1021,0 7 60 0,0
19.10.2018 16:00:00 16,9 10,4 18,5 17,7 12,5 14,4 12 6 18 10 ENE 1021,1 6 60 0,0
19.10.2018 15:00:00 17,1 10,2 20,8 17,9 12,3 14,4 8 4 17 9 ENE 1021,0 6 60 0,0
19.10.2018 14:00:00 15,8 10,6 19,5 16,7 12,2 14,4 4 2 9 5 ESE 1021,6 4,3 60 0,0
19.10.2018 13:00:00 13,5 9,7 17,4 14,8 12,2 14,4 6 3 9 5 SSW 1022,7 3,4 60 0,0
19.10.2018 12:00:00 10,1 9,4 13,2 12,3 12,2 14,4 5 3 8 4 E 1023,6 2,0 11 0,0
19.10.2018 11:00:00 8,4 8,2 10,2 10,9 12,2 14,4 3 2 6 4 SSE 1024,1 0,3 0 0,0
19.10.2018 10:00:00 7,1 7,0 8,1 10,0 12,3 14,4 2 1 3 2 NW 1024,0 0,1 0 0,0
19.10.2018 09:00:00 6,2 6,2 7,3 9,4 12,3 14,4 3 1 4 2 NNE 1023,6 0,1 0 0,0
19.10.2018 08:00:00 6,1 6,1 6,5 9,2 12,4 14,4 0 0 3 2 N 1023,0 0,1 0 0,0
19.10.2018 07:00:00 6,3 6,3 6,7 9,2 12,5 14,4 2 1 3 2 NNW 1022,6 0,1 0 0,1
19.10.2018 06:00:00 6,2 6,2 6,7 9,1 12,6 14,4 1 1 3 1 NW 1022,4 0,1 0 0,0
19.10.2018 05:00:00 6,2 6,2 6,4 9,1 12,7 14,4 0 0 3 2 N 1022,4 0,1 0 0,0
19.10.2018 04:00:00 5,6 5,6 5,9 8,9 12,8 14,4 0 0 4 2 N 1022,4 0,1 0 0,0
19.10.2018 03:00:00 5,1 5,0 5,3 9,0 12,9 14,4 2 1 3 2 ENE 1022,5 0,1 0 0,0
19.10.2018 02:00:00 4,9 4,9 4,3 9,0 13,0 14,4 2 1 4 2 SW 1022,6 0,1 0 0,0
19.10.2018 01:00:00 5,4 5,2 4,8 9,0 13,2 14,4 3 2 7 4 E 1022,8 0,1 0 0,0
19.10.2018 00:00:00 4,6 4,4 2,6 9,4 13,3 14,4 0 0 3 2 N 1022,7 0,1 0 0,0
18.10.2018 23:00:00 5,9 4,9 2,8 10,1 13,3 14,4 0 0 5 3 N 1022,5 7 0 0,0
18.10.2018 22:00:00 6,6 6,0 4,2 10,8 13,4 14,4 0 0 5 3 N 1022,0 3,8 0 0,0
18.10.2018 21:00:00 7,7 7,2 4,4 11,8 13,4 14,4 2 1 7 4 WNW 1021,5 2,3 0 0,0
18.10.2018 20:00:00 9,4 8,0 5,3 12,9 13,3 14,4 0 0 5 3 N 1020,8 4,1 0 0,0
18.10.2018 19:00:00 11,1 9,7 7,1 14,5 13,1 14,4 0 0 4 2 N 1019,8 4,1 0 0,0
18.10.2018 18:00:00 15,3 11,3 13,0 16,4 12,9 14,4 2 1 5 3 ENE 1018,3 6 19 0,0
18.10.2018 17:00:00 19,2 11,2 18,8 17,8 12,6 14,4 0 0 6 3 N 1017,6 7 60 0,0
18.10.2018 16:00:00 18,8 10,9 22,0 18,1 12,4 14,4 1 1 9 5 E 1017,8 7 57 0,0
18.10.2018 15:00:00 18,0 10,5 21,2 17,9 12,2 14,4 4 2 10 5 E 1018,0 7 60 0,0
18.10.2018 14:00:00 16,6 10,3 20,0 16,2 12,1 14,4 3 2 6 3 WSW 1018,6 6 32 0,0
18.10.2018 13:00:00 14,1 9,5 16,3 14,7 12,0 14,4 2 1 6 3 SE 1019,6 4,5 51 0,0
18.10.2018 12:00:00 11,2 8,5 14,9 12,5 12,1 14,4 3 2 6 3 E 1020,7 3,9 36 0,0
18.10.2018 11:00:00 7,5 7,1 9,0 10,1 12,1 14,5 2 1 4 2 SW 1021,5 0,4 0 0,0
18.10.2018 10:00:00 6,0 5,8 7,0 8,8 12,2 14,5 0 0 3 1 N 1021,8 0,1 0 0,0
18.10.2018 09:00:00 4,6 4,6 5,4 7,7 12,4 14,5 0 0 3 1 N 1021,7 0,1 0 0,0
18.10.2018 08:00:00 3,6 3,6 4,1 7,2 12,5 14,5 0 0 5 3 N 1021,3 0,1 0 0,0
18.10.2018 07:00:00 2,0 2,0 2,0 6,9 12,7 14,5 3 2 3 2 W 1021,3 0,2 0 0,0
18.10.2018 06:00:00 1,9 1,8 1,0 7,1 12,8 14,5 0 0 3 1 N 1021,2 0,1 0 0,0
18.10.2018 05:00:00 2,7 2,5 0,5 7,5 13,0 14,5 0 0 2 1 N 1020,9 0,1 0 0,0
18.10.2018 04:00:00 2,8 2,8 0,9 7,9 13,2 14,5 2 1 4 2 NW 1020,9 0,1 0 0,0
18.10.2018 03:00:00 3,0 2,8 1,7 8,2 13,3 14,5 2 1 4 2 W 1021,1 0,3 0 0,0
18.10.2018 02:00:00 4,0 3,6 1,7 8,7 13,5 14,5 0 0 5 3 N 1021,0 4,3 0 0,0
18.10.2018 01:00:00 4,4 4,2 2,1 9,2 13,6 14,5 0 0 3 2 N 1020,8 0,1 0 0,0
18.10.2018 00:00:00 5,5 5,1 2,3 9,8 13,7 14,5 3 1 4 2 W 1020,5 3,7 0 0,0
17.10.2018 23:00:00 5,9 5,4 3,0 10,6 13,8 14,5 0 0 4 2 N 1020,6 3,0 0 0,0
17.10.2018 22:00:00 6,3 5,3 3,1 11,4 13,9 14,5 3 1 4 2 WNW 1020,5 4,1 0 0,0
17.10.2018 21:00:00 8,0 6,9 4,6 12,5 13,8 14,5 2 1 3 2 W 1019,7 4,3 0 0,0
17.10.2018 20:00:00 10,0 9,1 5,9 13,8 13,7 14,5 0 0 3 2 N 1019,2 6 0 0,0
17.10.2018 19:00:00 12,3 9,6 7,4 15,6 13,6 14,5 0 0 5 3 N 1018,5 10 0 0,0
17.10.2018 18:00:00 16,5 10,7 14,1 17,6 13,3 14,5 4 2 9 5 E 1017,6 9 51 0,0
17.10.2018 17:00:00 19,3 9,2 20,3 18,9 13,1 14,5 5 3 10 6 SE 1017,1 17 60 0,0
17.10.2018 16:00:00 19,0 9,1 21,0 19,6 12,8 14,5 6 3 11 6 SE 1017,3 16 60 0,0
17.10.2018 15:00:00 19,3 9,2 22,6 19,6 12,5 14,5 7 4 12 6 SSE 1017,6 18 60 0,0
17.10.2018 14:00:00 17,9 8,0 21,8 18,7 12,4 14,5 6 3 10 6 SE 1018,3 13 60 0,0
17.10.2018 13:00:00 16,8 8,0 20,6 16,9 12,3 14,5 5 3 8 5 SE 1019,1 18 60 0,0
17.10.2018 12:00:00 15,1 8,4 18,7 14,5 12,3 14,5 5 3 9 5 SSE 1019,9 12 60 0,0
17.10.2018 11:00:00 12,1 8,4 14,6 11,7 12,3 14,5 4 2 8 4 ESE 1020,7 9 60 0,0
17.10.2018 10:00:00 7,7 7,3 9,7 9,2 12,4 14,5 3 1 4 2 E 1021,6 1,4 13 0,0
17.10.2018 09:00:00 5,2 4,9 6,1 8,1 12,6 14,5 0 0 4 2 N 1022,1 0,7 0 0,0
17.10.2018 08:00:00 4,6 4,6 4,5 7,8 12,7 14,5 3 2 4 2 ENE 1021,9 0,1 0 0,0
17.10.2018 07:00:00 4,4 4,4 4,2 7,8 12,9 14,5 3 1 5 3 ESE 1021,5 0,1 0 0,0
17.10.2018 06:00:00 3,5 3,5 2,7 7,7 13,0 14,5 2 1 5 3 WNW 1021,5 0,1 0 0,0
17.10.2018 05:00:00 3,1 3,1 1,7 7,9 13,2 14,5 1 1 3 2 WSW 1021,5 0,1 0 0,0
17.10.2018 04:00:00 3,4 3,3 1,6 8,2 13,3 14,5 0 0 2 1 N 1021,5 0,2 0 0,0
17.10.2018 03:00:00 3,7 3,6 1,8 8,6 13,5 14,5 0 0 3 2 N 1021,7 0,2 0 0,0
17.10.2018 02:00:00 4,4 4,0 2,0 9,1 13,6 14,5 0 0 4 2 N 1021,6 1,9 0 0,0
17.10.2018 01:00:00 5,2 4,4 2,2 9,7 13,7 14,6 0 0 4 2 N 1021,4 5 0 0,0
17.10.2018 00:00:00 5,6 4,8 2,6 10,4 13,8 14,6 4 2 5 3 NW 1021,4 3,8 0 0,0
16.10.2018 23:00:00 6,5 5,4 3,6 11,1 13,9 14,6 3 2 5 3 WNW 1021,3 8 0 0,0
16.10.2018 22:00:00 8,4 6,6 5,1 12,1 13,9 14,6 3 1 5 3 WNW 1020,9 10 0 0,0
16.10.2018 21:00:00 9,9 7,8 6,4 13,1 13,9 14,6 3 2 9 5 W 1020,3 11 0 0,0
16.10.2018 20:00:00 11,8 9,3 8,4 14,3 13,8 14,6 3 2 5 3 W 1019,9 12 0 0,0
16.10.2018 19:00:00 13,1 9,4 8,9 16,0 13,6 14,6 4 2 5 3 NNW 1019,2 18 0 0,0
16.10.2018 18:00:00 17,8 11,2 15,9 17,9 13,3 14,6 3 1 5 3 N 1018,0 21 54 0,0
16.10.2018 17:00:00 20,5 10,4 21,2 19,0 13,0 14,6 4 2 13 7 W 1017,6 17 60 0,0
16.10.2018 16:00:00 20,5 8,4 21,9 19,7 12,7 14,6 8 4 13 7 WNW 1017,6 16 60 0,0
16.10.2018 15:00:00 20,0 8,3 23,0 19,6 12,5 14,6 8 4 16 9 WNW 1017,9 27 60 0,0
16.10.2018 14:00:00 19,2 8,8 23,6 18,8 12,3 14,6 5 3 10 6 NW 1018,2 15 60 0,0
16.10.2018 13:00:00 18,0 8,3 22,4 16,9 12,2 14,6 3 2 9 5 WSW 1018,8 14 60 0,0
16.10.2018 12:00:00 15,5 7,6 20,8 14,3 12,2 14,6 3 2 5 3 N 1019,5 19 60 0,0
16.10.2018 11:00:00 12,9 7,5 15,2 11,4 12,3 14,6 4 2 9 5 S 1019,7 15 60 0,0
16.10.2018 10:00:00 9,0 6,0 10,0 8,5 12,4 14,6 2 1 4 2 WSW 1020,4 11 60 0,0
16.10.2018 09:00:00 4,9 3,8 5,8 6,7 12,6 14,6 0 0 4 2 N 1021,1 4,4 38 0,0
16.10.2018 08:00:00 2,6 2,6 0,7 6,4 12,8 14,6 0 0 4 2 N 1020,9 2,0 0 0,0
16.10.2018 07:00:00 1,8 1,4 0,1 6,6 12,9 14,6 4 2 5 3 WNW 1020,5 8 0 0,0
16.10.2018 06:00:00 2,5 2,3 0,5 7,0 13,1 14,6 2 1 4 2 W 1020,0 0,4 0 0,0
16.10.2018 05:00:00 2,9 2,5 0,7 7,3 13,3 14,6 1 1 4 2 W 1019,6 0,5 0 0,0
16.10.2018 04:00:00 3,4 3,2 0,4 7,7 13,4 14,6 0 0 5 3 N 1019,1 4,5 0 0,0
16.10.2018 03:00:00 4,0 3,8 0,8 8,2 13,6 14,6 2 1 4 2 WSW 1018,9 0,3 0 0,0
16.10.2018 02:00:00 4,6 3,4 2,0 8,7 13,8 14,6 4 2 6 4 W 1018,8 8 0 0,0
16.10.2018 01:00:00 5,1 4,5 1,6 9,2 13,9 14,6 3 2 4 2 WNW 1018,3 7 0 0,0
16.10.2018 00:00:00 5,5 4,9 1,9 9,9 14,0 14,6 2 1 5 3 NW 1017,9 6 0 0,0
15.10.2018 23:00:00 6,4 5,7 2,7 10,6 14,1 14,6 0 0 4 2 N 1017,5 11 0 0,0
15.10.2018 22:00:00 7,0 5,9 3,3 11,5 14,2 14,6 2 1 4 2 E 1017,1 13 0 0,0
15.10.2018 21:00:00 8,4 6,6 4,4 12,5 14,2 14,6 2 1 5 3 NW 1016,7 14 0 0,0
15.10.2018 20:00:00 11,1 8,6 5,6 13,9 14,1 14,6 3 2 6 3 S 1016,1 15 0 0,0
15.10.2018 19:00:00 11,9 8,7 8,0 15,5 13,9 14,6 0 0 7 4 N 1015,6 14 0 0,0
15.10.2018 18:00:00 17,2 8,8 14,1 17,4 13,7 14,6 6 4 14 8 E 1014,2 27 50 0,0
15.10.2018 17:00:00 19,6 9,2 19,9 18,6 13,5 14,6 9 5 21 11 E 1013,8 30 60 0,0
15.10.2018 16:00:00 20,2 9,1 21,9 19,3 13,2 14,6 10 6 26 14 ESE 1013,9 21 60 0,0
15.10.2018 15:00:00 20,0 8,1 22,1 19,2 13,0 14,6 16 8 26 14 ESE 1014,2 17 60 0,0
15.10.2018 14:00:00 19,5 7,5 22,4 18,4 12,9 14,6 14 8 23 12 ESE 1014,6 12 60 0,0
15.10.2018 13:00:00 18,3 8,2 21,7 16,8 12,8 14,6 13 7 19 11 ESE 1015,1 17 60 0,0
15.10.2018 12:00:00 16,3 7,2 18,8 14,6 12,9 14,6 14 8 23 13 ESE 1015,9 15 60 0,0
15.10.2018 11:00:00 14,4 7,4 16,8 11,7 13,0 14,6 6 4 14 8 E 1016,2 12 52 0,0
15.10.2018 10:00:00 10,6 6,5 12,2 9,1 13,1 14,6 6 3 11 6 E 1017,0 16 18 0,0
15.10.2018 09:00:00 8,7 5,3 7,9 8,5 13,2 14,6 8 4 11 6 E 1017,2 15 11 0,0
15.10.2018 08:00:00 7,3 4,7 3,4 8,5 13,3 14,6 6 4 13 7 E 1017,0 19 0 0,0
15.10.2018 07:00:00 8,5 5,1 5,9 9,0 13,5 14,6 7 4 15 8 E 1016,3 24 0 0,0
15.10.2018 06:00:00 8,2 5,2 6,2 9,3 13,6 14,6 9 5 16 8 E 1016,3 24 0 0,0
15.10.2018 05:00:00 9,9 5,9 7,3 9,6 13,7 14,6 9 5 17 9 E 1015,9 27 0 0,0
15.10.2018 04:00:00 9,9 6,1 7,1 10,0 13,8 14,6 11 6 14 8 E 1015,7 28 0 0,0
15.10.2018 03:00:00 10,8 6,4 7,6 10,5 13,9 14,6 9 5 16 8 E 1015,6 28 0 0,0
15.10.2018 02:00:00 11,6 6,5 9,0 11,0 14,0 14,6 10 6 17 9 E 1015,2 28 0 0,0
15.10.2018 01:00:00 12,7 6,6 10,5 11,4 14,1 14,6 13 7 19 11 E 1015,2 29 0 0,0
15.10.2018 00:00:00 12,2 6,8 9,3 11,8 14,2 14,6 10 5 16 9 E 1014,7 25 0 0,0
14.10.2018 23:00:00 13,0 7,1 9,9 12,4 14,3 14,6 9 5 19 10 E 1014,5 25 0 0,0
14.10.2018 22:00:00 14,5 7,4 11,7 12,9 14,3 14,6 11 6 19 10 E 1014,0 29 0 0,0
14.10.2018 21:00:00 16,2 8,2 12,3 13,9 14,2 14,6 9 5 20 11 E 1013,5 30 0 0,0
14.10.2018 20:00:00 17,6 8,9 14,5 14,8 14,1 14,6 13 7 20 11 E 1012,9 29 0 0,0
14.10.2018 19:00:00 18,5 9,0 12,7 16,2 14,0 14,6 9 5 14 8 E 1012,7 28 0 0,0

tt = Température de l'air
td = dewpoint
tt 5cm = Température de l'air 5cm
tt -5cm = Température de l'air -5cm
tt -20cm = Température de l'air -20cm
tt -100cm = Température de l'air -100cm
ff = Vitesse du vent
fx = gusts
dd = Direction du vent
ppp = reduced air pressure
vv = visibility
sd = Ensoleillement
rr = Quantités de précipitations

stations d'obs. à proximité